EW6313 Weather Reports


time (UTC)temp
C
wind
direction
speed
KPH
gust
KPH
rain 1hr
cm
rain 24hr
cm
rain mn
cm
humidity
%
barometer
mb
20260504081555 4 239 0.0 0.0 0.00 0.00 0.00 74 1003.3
20260504044525 8 239 0.0 0.0 0.00 0.00 0.00 57 1004.2
20260504043029 9 239 0.0 0.0 0.00 0.00 0.00 55 1004.4
20260504041532 9 238 0.0 0.0 0.00 0.00 0.00 54 1004.4
20260504040024 10 238 0.0 0.0 0.00 0.00 0.00 53 1004.4
20260504034524 10 239 0.0 0.0 0.00 0.00 0.00 50 1004.4
20260504033023 11 238 0.0 0.0 0.00 0.00 0.00 47 1004.3
20260504031523 12 239 0.0 0.0 0.00 0.00 0.00 45 1004.3
20260504030022 12 238 0.0 6.4 0.00 0.00 0.00 43 1004.1
20260504024524 13 239 1.6 6.4 0.00 0.00 0.00 44 1004.0
20260504023021 13 240 0.0 0.0 0.00 0.00 0.00 42 1003.9
20260504021520 14 240 0.0 4.8 0.00 0.00 0.00 38 1003.8
20260504020021 15 240 3.2 4.8 0.00 0.00 0.00 37 1003.7
20260504014526 15 240 3.2 6.4 0.00 0.00 0.00 37 1003.8
20260504013019 17 240 0.0 0.0 0.00 0.00 0.00 32 1003.7
20260504011518 18 240 0.0 1.6 0.00 0.00 0.00 30 1003.9
20260504010017 18 240 1.6 9.7 0.00 0.00 0.00 30 1003.9
20260504004520 18 239 4.8 14.5 0.00 0.00 0.00 29 1004.0
20260504003014 17 239 0.0 3.2 0.00 0.00 0.00 31 1004.1
20260504001514 17 239 6.4 9.7 0.00 0.00 0.00 31 1004.4
20260504000013 18 238 9.7 14.5 0.00 0.00 0.00 31 1004.4
20260503234512 17 239 9.7 19.3 0.00 0.00 0.00 30 1004.6
20260503233017 18 240 3.2 19.3 0.00 0.00 0.00 29 1004.8
20260503231511 17 239 6.4 19.3 0.00 0.00 0.00 30 1004.6
20260503230011 17 239 17.7 30.6 0.00 0.00 0.00 30 1004.9
20260503224509 18 239 22.5 35.4 0.00 0.00 0.00 30 1004.9
20260503223009 16 239 16.1 41.8 0.00 0.00 0.00 35 1004.8
20260503221508 17 239 24.1 30.6 0.00 0.00 0.00 32 1004.9
20260503220007 19 239 22.5 35.4 0.00 0.00 0.00 27 1004.5
20260503214508 19 240 11.3 38.6 0.00 0.00 0.00 25 1004.4
20260503213006 20 239 12.9 41.8 0.00 0.00 0.00 23 1004.7
20260503211503 21 240 19.3 38.6 0.00 0.00 0.00 17 1004.3
20260503210002 21 239 20.9 35.4 0.00 0.00 0.00 18 1004.4
20260503204559 21 239 19.3 43.5 0.00 0.00 0.00 20 1004.8
20260503203058 21 239 11.3 41.8 0.00 0.00 0.00 22 1005.1
20260503201553 21 239 6.4 29.0 0.00 0.00 0.00 23 1005.4
20260503200056 20 239 14.5 27.4 0.00 0.00 0.00 22 1005.7
20260503194556 20 238 19.3 29.0 0.00 0.00 0.00 23 1006.0
20260503193045 20 238 16.1 30.6 0.00 0.00 0.00 24 1006.3
20260503191547 20 238 11.3 20.9 0.00 0.00 0.00 26 1006.4
20260503190041 19 238 9.7 22.5 0.00 0.00 0.00 26 1006.9
20260503184537 18 238 3.2 16.1 0.00 0.00 0.00 27 1007.1
20260503183035 18 238 4.8 16.1 0.00 0.00 0.00 28 1007.4
20260503181532 18 239 0.0 8.0 0.00 0.00 0.00 30 1007.7
20260503180029 18 238 1.6 9.7 0.00 0.00 0.00 28 1008.0
20260503174525 17 239 1.6 11.3 0.00 0.00 0.00 30 1008.2
20260503173028 17 239 0.0 14.5 0.00 0.00 0.00 32 1008.5
20260503171519 16 238 9.7 22.5 0.00 0.00 0.00 34 1008.7